| time (UTC) | temp F | wind direction | speed knots | gust knots | rain 1hr in | rain 24hr in | rain mn in | humidity % | barometer mb |
| 20260905182631 | 73 | 235 | 0.0 | 0.9 | 0.00 | 0.40 | 0.40 | 99 | 1012.5 |
| 20260905182131 | 74 | 168 | 0.9 | 0.9 | 0.00 | 0.40 | 0.40 | 99 | 1012.6 |
| 20260905181626 | 74 | 260 | 0.0 | 0.9 | 0.00 | 0.40 | 0.40 | 99 | 1012.8 |
| 20260905181125 | 74 | 226 | 0.0 | 1.7 | 0.00 | 0.40 | 0.40 | 99 | 1012.9 |
| 20260905180620 | 73 | 223 | 0.0 | 0.9 | 0.00 | 0.40 | 0.40 | 99 | 1013.1 |
| 20260905180115 | 73 | 235 | 0.0 | 1.7 | 0.00 | 0.40 | 0.40 | 99 | 1013.1 |
| 20260905175614 | 74 | 237 | 0.0 | 0.9 | 0.00 | 0.40 | 0.40 | 99 | 1013.3 |
| 20260905175109 | 73 | 297 | 0.9 | 0.9 | 0.00 | 0.40 | 0.40 | 99 | 1013.7 |
| 20260905174605 | 74 | 301 | 0.9 | 1.7 | 0.00 | 0.40 | 0.40 | 99 | 1013.7 |
| 20260905174101 | 73 | 185 | 0.0 | 2.6 | 0.00 | 0.40 | 0.40 | 99 | 1013.6 |
| 20260905173557 | 73 | 270 | 0.0 | 2.6 | 0.00 | 0.40 | 0.40 | 99 | 1013.3 |
| 20260905173052 | 73 | 256 | 0.0 | 0.9 | 0.00 | 0.40 | 0.40 | 99 | 1013.6 |
| 20260905172551 | 73 | 284 | 0.0 | 0.9 | 0.00 | 0.40 | 0.40 | 99 | 1013.7 |
| 20260905172047 | 73 | 206 | 0.9 | 1.7 | 0.05 | 0.40 | 0.40 | 99 | 1013.6 |
| 20260905171543 | 73 | 224 | 0.0 | 0.0 | 0.12 | 0.40 | 0.40 | 99 | 1013.9 |
| 20260905171038 | 73 | 265 | 2.6 | 5.2 | 0.31 | 0.39 | 0.39 | 99 | 1014.2 |
| 20260905170535 | 74 | 204 | 0.9 | 1.7 | 0.47 | 0.38 | 0.38 | 99 | 1014.6 |
| 20260905170030 | 74 | 9 | 1.7 | 2.6 | 0.66 | 0.33 | 0.33 | 99 | 1015.0 |
| 20260905165524 | 75 | 250 | 0.9 | 1.7 | 1.18 | 0.29 | 0.29 | 99 | 1014.7 |
| 20260905165020 | 76 | 260 | 0.0 | 2.6 | 1.09 | 0.22 | 0.22 | 98 | 1014.8 |
| 20260905164514 | 77 | 256 | 0.0 | 0.0 | 0.50 | 0.09 | 0.09 | 97 | 1014.5 |
| 20260905164009 | 78 | 247 | 0.0 | 0.9 | 0.24 | 0.04 | 0.04 | 93 | 1014.1 |
| 20260905163505 | 79 | 239 | 0.0 | 0.0 | 0.05 | 0.01 | 0.01 | 88 | 1014.0 |
| 20260905163000 | 80 | 249 | 0.9 | 2.6 | 0.00 | 0.00 | 0.00 | 85 | 1014.3 |
| 20260905162456 | 81 | 327 | 0.0 | 0.0 | 0.00 | 0.00 | 0.00 | 84 | 1013.9 |
| 20260905161951 | 81 | 294 | 0.9 | 0.9 | 0.00 | 0.00 | 0.00 | 82 | 1013.7 |
| 20260905161450 | 82 | 321 | 1.7 | 1.7 | 0.00 | 0.00 | 0.00 | 81 | 1013.9 |
| 20260905160948 | 83 | 268 | 0.9 | 3.5 | 0.00 | 0.00 | 0.00 | 79 | 1013.7 |
| 20260905160442 | 84 | 259 | 0.0 | 1.7 | 0.00 | 0.00 | 0.00 | 77 | 1013.6 |
| 20260905155942 | 84 | 294 | 2.6 | 3.5 | 0.00 | 0.00 | 0.00 | 77 | 1013.5 |
| 20260905155437 | 84 | 291 | 2.6 | 2.6 | 0.00 | 0.00 | 0.00 | 77 | 1013.4 |
| 20260905154935 | 84 | 307 | 1.7 | 5.2 | 0.00 | 0.00 | 0.00 | 78 | 1013.3 |
| 20260905154431 | 84 | 1 | 0.9 | 1.7 | 0.00 | 0.00 | 0.00 | 76 | 1013.3 |
| 20260905153926 | 84 | 301 | 0.9 | 1.7 | 0.00 | 0.00 | 0.00 | 78 | 1013.3 |
| 20260905153423 | 84 | 26 | 0.9 | 3.5 | 0.00 | 0.00 | 0.00 | 78 | 1013.7 |
| 20260905152922 | 83 | 300 | 0.9 | 3.5 | 0.00 | 0.00 | 0.00 | 78 | 1013.5 |
| 20260905152422 | 84 | 283 | 0.0 | 0.9 | 0.00 | 0.00 | 0.00 | 78 | 1013.7 |
| 20260905151917 | 84 | 321 | 0.9 | 1.7 | 0.00 | 0.00 | 0.00 | 77 | 1013.6 |
| 20260905151412 | 84 | 38 | 0.9 | 5.2 | 0.00 | 0.00 | 0.00 | 78 | 1013.5 |
| 20260905150907 | 84 | 286 | 1.7 | 6.1 | 0.00 | 0.00 | 0.00 | 76 | 1013.7 |
| 20260905150407 | 85 | 266 | 0.0 | 2.6 | 0.00 | 0.00 | 0.00 | 78 | 1013.5 |
| 20260905145904 | 84 | 184 | 0.0 | 0.9 | 0.00 | 0.00 | 0.00 | 79 | 1013.6 |
| 20260905145358 | 84 | 343 | 0.9 | 6.1 | 0.00 | 0.00 | 0.00 | 78 | 1013.5 |
| 20260905144858 | 84 | 160 | 0.9 | 6.1 | 0.00 | 0.00 | 0.00 | 77 | 1013.6 |
| 20260905144353 | 84 | 81 | 0.0 | 2.6 | 0.00 | 0.00 | 0.00 | 79 | 1013.5 |
| 20260905143852 | 84 | 300 | 1.7 | 7.0 | 0.00 | 0.00 | 0.00 | 78 | 1013.6 |
| 20260905143346 | 83 | 180 | 1.7 | 3.5 | 0.00 | 0.00 | 0.00 | 79 | 1013.5 |
| 20260905142846 | 82 | 1 | 2.6 | 3.5 | 0.00 | 0.00 | 0.00 | 79 | 1013.7 |
| 20260905142344 | 82 | 20 | 0.9 | 1.7 | 0.00 | 0.00 | 0.00 | 80 | 1013.8 |
| 20260905141841 | 82 | 241 | 0.9 | 5.2 | 0.00 | 0.00 | 0.00 | 81 | 1013.8 |
| 20260905141336 | 81 | 7 | 4.3 | 5.2 | 0.00 | 0.00 | 0.00 | 81 | 1013.5 |
| 20260905140832 | 81 | 78 | 1.7 | 2.6 | 0.00 | 0.00 | 0.00 | 82 | 1013.5 |
| 20260905140332 | 80 | 276 | 1.7 | 3.5 | 0.00 | 0.00 | 0.00 | 83 | 1013.3 |
| 20260905135830 | 82 | 85 | 1.7 | 2.6 | 0.00 | 0.00 | 0.00 | 82 | 1013.2 |
| 20260905135326 | 81 | 268 | 0.9 | 0.9 | 0.00 | 0.00 | 0.00 | 84 | 1013.5 |
| 20260905134821 | 80 | 335 | 0.0 | 0.9 | 0.00 | 0.00 | 0.00 | 86 | 1013.3 |
| 20260905134314 | 80 | 259 | 0.0 | 0.9 | 0.00 | 0.00 | 0.00 | 87 | 1013.3 |
| 20260905133809 | 78 | 325 | 1.7 | 6.1 | 0.00 | 0.00 | 0.00 | 88 | 1013.3 |
| 20260905133305 | 76 | 37 | 0.9 | 2.6 | 0.00 | 0.00 | 0.00 | 99 | 1013.2 |
| 20260905132803 | 76 | 294 | 0.0 | 0.9 | 0.00 | 0.00 | 0.00 | 99 | 1013.1 |
| 20260905132259 | 75 | 130 | 0.0 | 1.7 | 0.00 | 0.00 | 0.00 | 99 | 1013.3 |
| 20260905131754 | 74 | 359 | 1.7 | 1.7 | 0.00 | 0.00 | 0.00 | 99 | 1013.4 |
| 20260905131249 | 73 | 281 | 0.0 | 1.7 | 0.00 | 0.00 | 0.00 | 99 | 1013.0 |
| 20260905130744 | 74 | 5 | 0.9 | 1.7 | 0.00 | 0.00 | 0.00 | 99 | 1012.9 |
| 20260905130243 | 73 | 328 | 0.0 | 1.7 | 0.00 | 0.00 | 0.00 | 99 | 1012.9 |
| 20260905125738 | 73 | 288 | 0.9 | 0.9 | 0.00 | 0.00 | 0.00 | 99 | 1013.0 |
| 20260905125233 | 73 | 274 | 0.0 | 1.7 | 0.00 | 0.00 | 0.00 | 99 | 1013.0 |
| 20260905124730 | 74 | 355 | 0.0 | 0.0 | 0.00 | 0.00 | 0.00 | 99 | 1013.2 |
| 20260905124226 | 73 | 261 | 0.0 | 0.0 | 0.00 | 0.00 | 0.00 | 99 | 1013.1 |
| 20260905123720 | 74 | 246 | 0.0 | 0.9 | 0.00 | 0.00 | 0.00 | 99 | 1013.2 |
| 20260905123218 | 73 | 245 | 0.0 | 0.9 | 0.00 | 0.00 | 0.00 | 99 | 1013.3 |
| 20260905122717 | 73 | 285 | 0.0 | 0.0 | 0.00 | 0.00 | 0.00 | 99 | 1013.3 |
| 20260905122211 | 72 | 241 | 0.0 | 0.9 | 0.00 | 0.00 | 0.00 | 99 | 1013.2 |
| 20260905121706 | 72 | 260 | 0.0 | 0.0 | 0.00 | 0.00 | 0.00 | 99 | 1013.2 |
| 20260905121203 | 72 | 337 | 0.9 | 0.9 | 0.00 | 0.00 | 0.00 | 99 | 1013.2 |
| 20260905120701 | 73 | 334 | 0.9 | 1.7 | 0.00 | 0.00 | 0.00 | 99 | 1013.2 |
| 20260905120156 | 72 | 272 | 0.0 | 0.9 | 0.00 | 0.00 | 0.00 | 99 | 1013.2 |
| 20260905115656 | 71 | 268 | 0.0 | 0.0 | 0.00 | 0.00 | 0.00 | 99 | 1013.4 |
| 20260905115151 | 71 | 267 | 0.0 | 0.0 | 0.00 | 0.00 | 0.00 | 99 | 1013.3 |
| 20260905114651 | 71 | 265 | 0.0 | 0.0 | 0.00 | 0.00 | 0.00 | 99 | 1013.2 |
| 20260905114149 | 70 | 265 | 0.0 | 0.0 | 0.00 | 0.00 | 0.00 | 99 | 1012.9 |
| 20260905113649 | 70 | 265 | 0.0 | 0.0 | 0.00 | 0.00 | 0.00 | 99 | 1013.0 |
| 20260905113145 | 70 | 265 | 0.0 | 0.0 | 0.00 | 0.00 | 0.00 | 99 | 1013.1 |
| 20260905112639 | 70 | 265 | 0.0 | 0.0 | 0.00 | 0.00 | 0.00 | 99 | 1013.0 |
| 20260905112135 | 69 | 253 | 0.0 | 0.0 | 0.00 | 0.00 | 0.00 | 99 | 1013.0 |
| 20260905111634 | 69 | 253 | 0.0 | 0.0 | 0.00 | 0.00 | 0.00 | 99 | 1013.0 |
| 20260905111134 | 69 | 249 | 0.0 | 0.0 | 0.00 | 0.00 | 0.00 | 99 | 1013.0 |
| 20260905110633 | 69 | 249 | 0.0 | 0.0 | 0.00 | 0.00 | 0.00 | 99 | 1013.0 |
| 20260905110128 | 69 | 249 | 0.0 | 0.0 | 0.00 | 0.00 | 0.00 | 99 | 1012.9 |
| 20260905105624 | 69 | 250 | 0.0 | 0.0 | 0.00 | 0.00 | 0.00 | 99 | 1013.0 |
| 20260905105122 | 69 | 251 | 0.0 | 0.0 | 0.00 | 0.00 | 0.00 | 99 | 1013.0 |
| 20260905104618 | 69 | 255 | 0.0 | 0.0 | 0.00 | 0.00 | 0.00 | 99 | 1012.8 |
| 20260905104113 | 69 | 258 | 0.0 | 0.0 | 0.00 | 0.00 | 0.00 | 99 | 1012.8 |
| 20260905103609 | 69 | 258 | 0.0 | 0.0 | 0.00 | 0.00 | 0.00 | 99 | 1012.8 |
| 20260905103104 | 69 | 258 | 0.0 | 0.0 | 0.00 | 0.00 | 0.00 | 99 | 1012.4 |
| 20260905102554 | 69 | 258 | 0.0 | 0.0 | 0.00 | 0.00 | 0.00 | 99 | 1012.5 |
| 20260905102051 | 69 | 258 | 0.0 | 0.0 | 0.00 | 0.00 | 0.00 | 99 | 1012.3 |
| 20260905101549 | 69 | 259 | 0.0 | 0.0 | 0.00 | 0.00 | 0.00 | 99 | 1012.4 |
| 20260905101047 | 69 | 254 | 0.0 | 0.0 | 0.00 | 0.00 | 0.00 | 99 | 1012.6 |
| 20260905100544 | 69 | 254 | 0.0 | 0.0 | 0.00 | 0.00 | 0.00 | 99 | 1012.3 |
| 20260905100043 | 70 | 250 | 0.0 | 0.0 | 0.00 | 0.00 | 0.00 | 99 | 1012.4 |
| 20260905095538 | 69 | 273 | 0.0 | 0.0 | 0.00 | 0.00 | 0.00 | 99 | 1012.5 |
| 20260905095033 | 69 | 273 | 0.0 | 0.0 | 0.00 | 0.00 | 0.00 | 99 | 1012.5 |
| 20260905094528 | 69 | 275 | 0.0 | 0.0 | 0.00 | 0.00 | 0.00 | 99 | 1012.3 |
| 20260905094027 | 69 | 276 | 0.0 | 0.0 | 0.00 | 0.00 | 0.00 | 99 | 1012.4 |
| 20260905093522 | 69 | 276 | 0.0 | 0.0 | 0.00 | 0.00 | 0.00 | 99 | 1012.3 |
| 20260905093019 | 69 | 277 | 0.0 | 0.0 | 0.00 | 0.00 | 0.00 | 99 | 1012.6 |
| 20260905092519 | 70 | 280 | 0.0 | 0.0 | 0.00 | 0.00 | 0.00 | 99 | 1012.3 |
| 20260905092015 | 70 | 263 | 0.0 | 0.0 | 0.00 | 0.00 | 0.00 | 99 | 1012.1 |
| 20260905091513 | 70 | 261 | 0.0 | 0.0 | 0.00 | 0.00 | 0.00 | 99 | 1012.1 |
| 20260905091008 | 70 | 265 | 0.0 | 0.0 | 0.00 | 0.00 | 0.00 | 99 | 1012.1 |
| 20260905090503 | 70 | 308 | 0.0 | 0.0 | 0.00 | 0.00 | 0.00 | 99 | 1012.3 |
| 20260905090002 | 70 | 261 | 0.0 | 0.0 | 0.00 | 0.00 | 0.00 | 99 | 1012.2 |
| 20260905085501 | 70 | 261 | 0.0 | 0.0 | 0.00 | 0.00 | 0.00 | 99 | 1012.3 |
| 20260905084957 | 70 | 270 | 0.0 | 0.0 | 0.00 | 0.00 | 0.00 | 99 | 1012.2 |
| 20260905084457 | 70 | 258 | 0.0 | 0.0 | 0.00 | 0.00 | 0.00 | 99 | 1012.3 |
| 20260905083952 | 70 | 258 | 0.0 | 0.0 | 0.00 | 0.00 | 0.00 | 99 | 1012.4 |
| 20260905083447 | 70 | 266 | 0.0 | 0.0 | 0.00 | 0.00 | 0.00 | 99 | 1012.2 |
| 20260905082943 | 70 | 255 | 0.0 | 0.0 | 0.00 | 0.00 | 0.00 | 99 | 1012.3 |
| 20260905082439 | 70 | 255 | 0.0 | 0.0 | 0.00 | 0.00 | 0.00 | 99 | 1012.2 |
| 20260905081934 | 70 | 260 | 0.0 | 0.0 | 0.00 | 0.00 | 0.00 | 99 | 1012.3 |
| 20260905081434 | 70 | 260 | 0.0 | 0.0 | 0.00 | 0.00 | 0.00 | 99 | 1012.3 |
| 20260905080932 | 70 | 269 | 0.0 | 0.0 | 0.00 | 0.00 | 0.00 | 99 | 1012.3 |
| 20260905080427 | 70 | 270 | 0.0 | 0.0 | 0.00 | 0.00 | 0.00 | 99 | 1012.3 |
| 20260905075926 | 70 | 257 | 0.0 | 0.0 | 0.00 | 0.00 | 0.00 | 99 | 1012.4 |
| 20260905075421 | 70 | 255 | 0.0 | 0.0 | 0.00 | 0.00 | 0.00 | 99 | 1012.4 |
| 20260905074920 | 70 | 248 | 0.0 | 0.0 | 0.00 | 0.00 | 0.00 | 99 | 1012.4 |
| 20260905074416 | 70 | 250 | 0.0 | 0.0 | 0.00 | 0.00 | 0.00 | 99 | 1012.7 |
| 20260905073911 | 70 | 259 | 0.0 | 0.0 | 0.00 | 0.00 | 0.00 | 99 | 1012.7 |
| 20260905073406 | 70 | 259 | 0.0 | 0.0 | 0.00 | 0.00 | 0.00 | 99 | 1012.7 |
| 20260905072902 | 70 | 269 | 0.0 | 0.0 | 0.00 | 0.00 | 0.00 | 99 | 1012.7 |
| 20260905072356 | 70 | 270 | 0.0 | 0.0 | 0.00 | 0.00 | 0.00 | 99 | 1012.7 |
| 20260905071852 | 70 | 270 | 0.0 | 0.0 | 0.00 | 0.00 | 0.00 | 99 | 1012.7 |
| 20260905071349 | 70 | 267 | 0.0 | 0.0 | 0.00 | 0.00 | 0.00 | 99 | 1012.7 |
| 20260905070843 | 70 | 266 | 0.0 | 0.0 | 0.00 | 0.00 | 0.00 | 99 | 1012.7 |
| 20260905070339 | 70 | 258 | 0.0 | 0.0 | 0.00 | 0.00 | 0.00 | 99 | 1012.7 |
| 20260905065838 | 70 | 257 | 0.0 | 0.0 | 0.00 | 0.00 | 0.00 | 99 | 1012.8 |
| 20260905065337 | 71 | 256 | 0.0 | 0.0 | 0.00 | 0.00 | 0.00 | 99 | 1013.1 |
| 20260905064832 | 70 | 259 | 0.0 | 0.0 | 0.00 | 0.00 | 0.00 | 99 | 1012.8 |
| 20260905064328 | 71 | 266 | 0.0 | 0.0 | 0.00 | 0.00 | 0.00 | 99 | 1012.9 |
| 20260905063826 | 71 | 250 | 0.0 | 0.0 | 0.00 | 0.00 | 0.00 | 99 | 1012.9 |
| 20260905063322 | 71 | 255 | 0.0 | 0.0 | 0.00 | 0.00 | 0.00 | 99 | 1013.2 |
| 20260905062819 | 71 | 248 | 0.0 | 0.0 | 0.00 | 0.00 | 0.00 | 99 | 1013.1 |
| 20260905062313 | 71 | 266 | 0.0 | 0.0 | 0.00 | 0.00 | 0.00 | 99 | 1013.1 |
| 20260905061808 | 71 | 272 | 0.0 | 0.0 | 0.00 | 0.00 | 0.00 | 99 | 1013.3 |
| 20260905061308 | 71 | 250 | 0.0 | 0.0 | 0.00 | 0.00 | 0.00 | 99 | 1013.2 |
| 20260905060802 | 71 | 258 | 0.0 | 0.0 | 0.00 | 0.00 | 0.00 | 99 | 1013.5 |
| 20260905060259 | 71 | 263 | 0.0 | 0.0 | 0.00 | 0.00 | 0.00 | 99 | 1013.4 |
| 20260905055757 | 71 | 263 | 0.0 | 0.0 | 0.00 | 0.00 | 0.00 | 99 | 1013.6 |
| 20260905055252 | 71 | 267 | 0.0 | 0.0 | 0.00 | 0.00 | 0.00 | 99 | 1013.6 |
| 20260905054747 | 71 | 256 | 0.0 | 0.0 | 0.00 | 0.00 | 0.00 | 99 | 1013.6 |
| 20260905054239 | 71 | 250 | 0.0 | 0.0 | 0.00 | 0.00 | 0.00 | 99 | 1013.7 |
| 20260905053737 | 71 | 248 | 0.0 | 0.0 | 0.00 | 0.00 | 0.00 | 99 | 1013.8 |
| 20260905053233 | 71 | 257 | 0.0 | 0.9 | 0.00 | 0.00 | 0.00 | 99 | 1013.9 |
| 20260905052732 | 71 | 253 | 0.0 | 0.0 | 0.00 | 0.00 | 0.00 | 99 | 1014.0 |
| 20260905052227 | 71 | 254 | 0.0 | 0.0 | 0.00 | 0.00 | 0.00 | 99 | 1014.2 |
| 20260905051726 | 71 | 263 | 0.0 | 0.0 | 0.00 | 0.00 | 0.00 | 99 | 1014.6 |
| 20260905051223 | 71 | 247 | 0.0 | 0.0 | 0.00 | 0.00 | 0.00 | 99 | 1014.4 |
| 20260905050720 | 71 | 256 | 0.0 | 0.0 | 0.00 | 0.00 | 0.00 | 99 | 1014.4 |
| 20260905050216 | 71 | 254 | 0.0 | 0.0 | 0.00 | 0.00 | 0.00 | 99 | 1014.5 |
| 20260905045715 | 71 | 259 | 0.0 | 0.0 | 0.00 | 0.00 | 0.00 | 99 | 1014.3 |
| 20260905045211 | 71 | 264 | 0.0 | 0.0 | 0.00 | 0.00 | 0.00 | 99 | 1014.7 |
| 20260905044706 | 71 | 266 | 0.0 | 0.0 | 0.00 | 0.00 | 0.00 | 99 | 1014.7 |
| 20260905044202 | 71 | 266 | 0.0 | 0.0 | 0.00 | 0.00 | 0.00 | 99 | 1014.8 |
| 20260905043700 | 71 | 266 | 0.0 | 0.0 | 0.00 | 0.00 | 0.00 | 99 | 1014.7 |
| 20260905043155 | 71 | 263 | 0.0 | 0.0 | 0.00 | 0.00 | 0.00 | 99 | 1014.8 |
| 20260905042654 | 72 | 256 | 0.0 | 0.0 | 0.00 | 0.00 | 0.00 | 99 | 1014.9 |
| 20260905042148 | 72 | 257 | 0.0 | 0.0 | 0.00 | 0.00 | 0.00 | 99 | 1014.9 |
| 20260905041644 | 72 | 254 | 0.0 | 0.0 | 0.00 | 0.00 | 0.00 | 99 | 1014.9 |
| 20260905041139 | 72 | 254 | 0.0 | 0.0 | 0.00 | 0.00 | 0.00 | 99 | 1015.0 |
| 20260905040634 | 72 | 250 | 0.0 | 0.0 | 0.00 | 0.00 | 0.00 | 99 | 1015.0 |
| 20260905040133 | 72 | 256 | 0.0 | 0.0 | 0.00 | 0.71 | 0.71 | 99 | 1014.9 |
| 20260905035628 | 72 | 250 | 0.0 | 0.0 | 0.00 | 0.71 | 0.71 | 99 | 1014.9 |
| 20260905035125 | 72 | 190 | 0.9 | 1.7 | 0.00 | 0.71 | 0.71 | 99 | 1014.9 |
| 20260905034620 | 72 | 254 | 0.0 | 0.9 | 0.00 | 0.71 | 0.71 | 99 | 1015.0 |
| 20260905034120 | 72 | 258 | 0.0 | 0.0 | 0.00 | 0.71 | 0.71 | 99 | 1015.2 |
| 20260905033614 | 72 | 245 | 0.0 | 0.0 | 0.00 | 0.71 | 0.71 | 99 | 1015.2 |
| 20260905033110 | 72 | 250 | 0.0 | 0.0 | 0.00 | 0.71 | 0.71 | 99 | 1015.1 |
| 20260905032609 | 72 | 261 | 0.0 | 0.0 | 0.00 | 0.71 | 0.71 | 99 | 1015.0 |
| 20260905032104 | 72 | 242 | 0.0 | 0.0 | 0.00 | 0.71 | 0.71 | 99 | 1015.1 |
| 20260905031600 | 72 | 264 | 0.0 | 0.0 | 0.00 | 0.71 | 0.71 | 99 | 1014.9 |
| 20260905031100 | 72 | 256 | 0.0 | 0.0 | 0.00 | 0.71 | 0.71 | 99 | 1014.8 |
| 20260905030555 | 73 | 259 | 0.0 | 0.0 | 0.00 | 0.71 | 0.71 | 99 | 1014.9 |
| 20260905030050 | 73 | 250 | 0.0 | 0.0 | 0.00 | 0.71 | 0.71 | 99 | 1014.8 |
| 20260905025545 | 73 | 255 | 0.0 | 0.0 | 0.00 | 0.71 | 0.71 | 99 | 1014.9 |
| 20260905025041 | 73 | 258 | 0.0 | 0.0 | 0.00 | 0.71 | 0.71 | 99 | 1015.0 |
| 20260905024536 | 73 | 267 | 0.0 | 0.0 | 0.00 | 0.71 | 0.71 | 99 | 1015.3 |
| 20260905024032 | 73 | 260 | 0.0 | 0.0 | 0.00 | 0.71 | 0.71 | 99 | 1015.2 |
| 20260905023527 | 73 | 243 | 0.0 | 0.9 | 0.00 | 0.71 | 0.71 | 99 | 1015.2 |
| 20260905023026 | 73 | 255 | 0.0 | 0.9 | 0.00 | 0.71 | 0.71 | 99 | 1015.1 |
| 20260905022521 | 73 | 256 | 0.0 | 0.0 | 0.00 | 0.71 | 0.71 | 99 | 1015.0 |
| 20260905022016 | 73 | 259 | 0.0 | 0.0 | 0.00 | 0.71 | 0.71 | 99 | 1015.0 |
| 20260905021516 | 73 | 250 | 0.0 | 0.0 | 0.00 | 0.71 | 0.71 | 99 | 1015.2 |
| 20260905021011 | 73 | 250 | 0.0 | 0.0 | 0.00 | 0.71 | 0.71 | 99 | 1015.4 |
| 20260905020511 | 73 | 258 | 0.0 | 0.0 | 0.00 | 0.71 | 0.71 | 99 | 1015.3 |
| 20260905020007 | 73 | 254 | 0.0 | 0.0 | 0.00 | 0.71 | 0.71 | 99 | 1014.9 |
| 20260905015504 | 73 | 250 | 0.0 | 0.0 | 0.00 | 0.71 | 0.71 | 99 | 1015.1 |
| 20260905015004 | 73 | 259 | 0.0 | 0.0 | 0.00 | 0.71 | 0.71 | 99 | 1015.0 |
| 20260905014459 | 73 | 250 | 0.0 | 0.0 | 0.00 | 0.71 | 0.71 | 99 | 1015.3 |
| 20260905013954 | 73 | 247 | 0.0 | 0.0 | 0.00 | 0.71 | 0.71 | 99 | 1015.2 |
| 20260905013450 | 73 | 255 | 0.0 | 0.0 | 0.00 | 0.71 | 0.71 | 99 | 1014.9 |
| 20260905012946 | 73 | 254 | 0.0 | 0.0 | 0.00 | 0.71 | 0.71 | 99 | 1014.6 |
| 20260905012440 | 73 | 254 | 0.0 | 0.0 | 0.00 | 0.71 | 0.71 | 99 | 1014.8 |
| 20260905011937 | 73 | 250 | 0.0 | 0.9 | 0.00 | 0.71 | 0.71 | 99 | 1014.6 |
| 20260905011433 | 73 | 247 | 0.0 | 0.0 | 0.00 | 0.71 | 0.71 | 99 | 1014.5 |
| 20260905010928 | 73 | 219 | 0.0 | 0.0 | 0.00 | 0.71 | 0.71 | 99 | 1014.4 |
| 20260905010423 | 73 | 247 | 0.0 | 0.0 | 0.00 | 0.71 | 0.71 | 99 | 1014.2 |
| 20260905005919 | 73 | 247 | 0.0 | 0.0 | 0.00 | 0.71 | 0.71 | 99 | 1014.2 |
| 20260905005415 | 73 | 250 | 0.0 | 0.0 | 0.00 | 0.71 | 0.71 | 99 | 1014.4 |
| 20260905004910 | 73 | 264 | 0.0 | 0.0 | 0.00 | 0.71 | 0.71 | 99 | 1014.0 |
| 20260905004410 | 73 | 117 | 1.7 | 1.7 | 0.00 | 0.71 | 0.71 | 99 | 1014.0 |
| 20260905003905 | 73 | 258 | 0.0 | 0.0 | 0.00 | 0.71 | 0.71 | 99 | 1014.2 |
| 20260905003400 | 73 | 259 | 0.0 | 0.0 | 0.00 | 0.71 | 0.71 | 99 | 1014.4 |
| 20260905002856 | 73 | 248 | 0.0 | 0.0 | 0.00 | 0.71 | 0.71 | 99 | 1013.7 |
| 20260905002350 | 73 | 256 | 0.0 | 0.0 | 0.00 | 0.71 | 0.71 | 99 | 1013.9 |
| 20260905001845 | 73 | 256 | 0.0 | 0.0 | 0.00 | 0.71 | 0.71 | 99 | 1013.8 |
| 20260905001344 | 73 | 260 | 0.0 | 0.0 | 0.00 | 0.71 | 0.71 | 99 | 1013.8 |
| 20260905000839 | 73 | 247 | 0.0 | 0.0 | 0.00 | 0.71 | 0.71 | 99 | 1013.9 |
| 20260905000335 | 73 | 219 | 0.0 | 0.9 | 0.00 | 0.71 | 0.71 | 99 | 1013.6 |
| 20260904235831 | 73 | 262 | 0.0 | 0.0 | 0.00 | 0.71 | 0.71 | 99 | 1013.5 |
| 20260904235326 | 73 | 343 | 0.9 | 0.9 | 0.00 | 0.71 | 0.71 | 99 | 1013.3 |
| 20260904234821 | 73 | 267 | 0.0 | 0.0 | 0.07 | 0.71 | 0.71 | 99 | 1013.5 |
| 20260904234321 | 73 | 239 | 0.0 | 0.9 | 0.07 | 0.71 | 0.71 | 99 | 1013.2 |
| 20260904233817 | 73 | 226 | 0.0 | 1.7 | 0.00 | 0.70 | 0.70 | 99 | 1013.4 |
| 20260904233313 | 73 | 198 | 0.0 | 0.9 | 0.00 | 0.70 | 0.70 | 99 | 1014.0 |
| 20260904232809 | 74 | 250 | 1.7 | 1.7 | 0.00 | 0.70 | 0.70 | 99 | 1014.3 |
| 20260904232307 | 74 | 210 | 0.0 | 0.0 | 0.00 | 0.70 | 0.70 | 99 | 1014.4 |
| 20260904231801 | 73 | 257 | 0.0 | 0.0 | 0.00 | 0.70 | 0.70 | 99 | 1014.5 |
| 20260904231255 | 74 | 227 | 0.0 | 0.0 | 0.00 | 0.70 | 0.70 | 99 | 1014.5 |
| 20260904230751 | 74 | 239 | 0.0 | 0.0 | 0.00 | 0.70 | 0.70 | 99 | 1014.8 |
| 20260904230249 | 73 | 246 | 0.0 | 0.9 | 0.00 | 0.70 | 0.70 | 99 | 1015.0 |
| 20260904225744 | 74 | 230 | 0.0 | 0.9 | 0.00 | 0.70 | 0.70 | 99 | 1015.0 |
| 20260904225238 | 73 | 244 | 0.0 | 0.0 | 0.00 | 0.70 | 0.70 | 99 | 1015.1 |
| 20260904224737 | 73 | 235 | 0.0 | 0.9 | 0.00 | 0.70 | 0.70 | 99 | 1015.1 |
| 20260904224233 | 73 | 244 | 0.0 | 0.9 | 0.00 | 0.70 | 0.70 | 99 | 1015.1 |
| 20260904223732 | 73 | 234 | 0.0 | 0.0 | 0.00 | 0.70 | 0.70 | 99 | 1015.5 |
| 20260904223227 | 73 | 259 | 0.0 | 0.0 | 0.00 | 0.70 | 0.70 | 99 | 1015.1 |
| 20260904222723 | 73 | 336 | 0.9 | 5.2 | 0.05 | 0.70 | 0.70 | 99 | 1015.2 |
| 20260904222218 | 73 | 296 | 0.9 | 0.9 | 0.17 | 0.70 | 0.70 | 99 | 1015.1 |
| 20260904221718 | 73 | 246 | 0.9 | 1.7 | 0.19 | 0.69 | 0.69 | 99 | 1015.2 |
| 20260904221213 | 73 | 237 | 0.0 | 1.7 | 0.07 | 0.67 | 0.67 | 99 | 1015.0 |
| 20260904220707 | 73 | 160 | 0.9 | 0.9 | 0.07 | 0.66 | 0.66 | 99 | 1015.0 |
| 20260904220202 | 72 | 140 | 0.9 | 3.5 | 0.31 | 0.66 | 0.66 | 99 | 1015.2 |
| 20260904215702 | 72 | 225 | 0.9 | 1.7 | 1.37 | 0.65 | 0.65 | 99 | 1015.1 |
| 20260904215158 | 72 | 4 | 1.7 | 2.6 | 1.68 | 0.57 | 0.57 | 99 | 1015.2 |
| 20260904214653 | 73 | 256 | 2.6 | 14.8 | 2.03 | 0.39 | 0.39 | 98 | 1015.8 |
| 20260904214148 | 75 | 168 | 2.6 | 16.5 | 1.68 | 0.28 | 0.28 | 96 | 1015.4 |
| 20260904213646 | 83 | 265 | 5.2 | 8.7 | 0.26 | 0.04 | 0.04 | 85 | 1014.2 |
| 20260904213143 | 91 | 252 | 0.9 | 0.9 | 0.00 | 0.00 | 0.00 | 69 | 1014.2 |
| 20260904212638 | 91 | 231 | 0.0 | 0.0 | 0.00 | 0.00 | 0.00 | 67 | 1013.3 |
| 20260904212133 | 92 | 231 | 0.0 | 0.0 | 0.00 | 0.00 | 0.00 | 64 | 1013.2 |
| 20260904211632 | 92 | 231 | 0.0 | 0.9 | 0.00 | 0.00 | 0.00 | 63 | 1013.0 |
| 20260904211127 | 93 | 297 | 0.0 | 0.9 | 0.00 | 0.00 | 0.00 | 61 | 1013.2 |
| 20260904210621 | 94 | 240 | 0.0 | 0.0 | 0.00 | 0.00 | 0.00 | 60 | 1013.1 |
| 20260904210117 | 94 | 229 | 0.0 | 0.9 | 0.00 | 0.00 | 0.00 | 58 | 1013.0 |
| 20260904205607 | 94 | 240 | 0.0 | 0.0 | 0.00 | 0.00 | 0.00 | 59 | 1013.1 |
| 20260904205103 | 94 | 298 | 0.0 | 0.9 | 0.00 | 0.00 | 0.00 | 58 | 1013.1 |
| 20260904204559 | 95 | 326 | 1.7 | 2.6 | 0.00 | 0.00 | 0.00 | 56 | 1013.0 |
| 20260904204055 | 96 | 227 | 0.0 | 1.7 | 0.00 | 0.00 | 0.00 | 55 | 1013.1 |
| 20260904203550 | 96 | 277 | 0.9 | 1.7 | 0.00 | 0.00 | 0.00 | 55 | 1012.9 |
| 20260904203047 | 95 | 66 | 0.9 | 0.9 | 0.00 | 0.00 | 0.00 | 59 | 1013.1 |
| 20260904202542 | 94 | 314 | 0.0 | 0.0 | 0.00 | 0.00 | 0.00 | 58 | 1013.0 |
| 20260904202038 | 95 | 271 | 0.0 | 0.9 | 0.00 | 0.00 | 0.00 | 57 | 1012.9 |
| 20260904201533 | 95 | 108 | 0.0 | 0.9 | 0.00 | 0.00 | 0.00 | 58 | 1012.8 |
| 20260904201028 | 95 | 172 | 0.0 | 0.9 | 0.00 | 0.00 | 0.00 | 57 | 1012.9 |
| 20260904200527 | 95 | 229 | 0.0 | 0.9 | 0.00 | 0.00 | 0.00 | 56 | 1013.1 |
| 20260904200023 | 96 | 227 | 0.0 | 0.9 | 0.00 | 0.00 | 0.00 | 56 | 1013.1 |
| 20260904195521 | 96 | 231 | 0.0 | 0.0 | 0.00 | 0.00 | 0.00 | 54 | 1013.4 |
| 20260904195020 | 96 | 30 | 0.0 | 1.7 | 0.00 | 0.00 | 0.00 | 54 | 1013.5 |
| 20260904194515 | 97 | 225 | 0.0 | 0.9 | 0.00 | 0.00 | 0.00 | 54 | 1013.6 |
| 20260904194010 | 98 | 224 | 0.0 | 0.9 | 0.00 | 0.00 | 0.00 | 52 | 1013.5 |
| 20260904193505 | 98 | 223 | 0.9 | 1.7 | 0.00 | 0.00 | 0.00 | 52 | 1013.6 |
| 20260904193002 | 98 | 235 | 0.0 | 1.7 | 0.00 | 0.00 | 0.00 | 55 | 1013.8 |
| 20260904192501 | 98 | 246 | 0.9 | 0.9 | 0.00 | 0.00 | 0.00 | 52 | 1013.6 |
| 20260904191957 | 98 | 219 | 1.7 | 1.7 | 0.00 | 0.00 | 0.00 | 53 | 1013.8 |
| 20260904191453 | 98 | 230 | 0.0 | 1.7 | 0.00 | 0.00 | 0.00 | 53 | 1013.9 |
| 20260904190950 | 98 | 236 | 0.0 | 2.6 | 0.00 | 0.00 | 0.00 | 52 | 1014.0 |
| 20260904190445 | 98 | 23 | 0.9 | 1.7 | 0.00 | 0.00 | 0.00 | 53 | 1014.2 |
| 20260904185941 | 97 | 233 | 1.7 | 1.7 | 0.00 | 0.00 | 0.00 | 53 | 1014.1 |
| 20260904185437 | 98 | 243 | 0.9 | 0.9 | 0.00 | 0.00 | 0.00 | 54 | 1014.3 |
| 20260904184936 | 97 | 208 | 0.9 | 1.7 | 0.00 | 0.00 | 0.00 | 53 | 1014.3 |
| 20260904184431 | 98 | 237 | 0.0 | 0.9 | 0.00 | 0.00 | 0.00 | 53 | 1014.4 |
| 20260904183927 | 98 | 8 | 1.7 | 2.6 | 0.00 | 0.00 | 0.00 | 52 | 1014.8 |
| 20260904183422 | 98 | 228 | 1.7 | 2.6 | 0.00 | 0.00 | 0.00 | 55 | 1014.6 |
| 20260904182917 | 97 | 200 | 0.0 | 0.9 | 0.00 | 0.00 | 0.00 | 55 | 1014.5 |